Location: Carrières
(48.9495°N, 2.0407°E)
Time: 23:17:51
(UTC+00:00)

Cosmos 1606 Rocket - Pass Details

Date: 21 June 2024
Orbit: 599 x 628 km, 82.5° (Epoch: 15 July)

Event Time Altitude Azimuth Distance (km) Brightness Sun altitude
Rises 00:34:42 0° 359° (N) 2,922 8.7 -17.0°
Reaches altitude 10° 00:37:18 10° 13° (NNE) 2,006 7.5 -17.0°
Maximum altitude 00:40:58 25° 69° (ENE) 1,277 5.5 -16.8°
Drops below altitude 10° 00:44:34 10° 125° (SE) 1,979 5.9 -16.7°
Enters shadow 00:45:12 - 129° (SE) 2,188 6.1 -16.7°
